Date String (YYYY-MM-DD hh:mm:ss) UTC,Instrument flags,Ambient pressure (hPa),Sample flow (lpm),Bypass flow (lpm),Sample temperature (°C),Ambient temperature (°C),ASC tube jacket temperature (°C),LED temperature (°C),Box temperature (°C),Sample RH (%),Span deviation,Mass concentration (μg/m³),Mass concentration (μg/m³),Mass concentration (μg/m³)
DateTimeUTC,F1_M11,P_M11,Q1_M11,Q2_M11,T1_M11,T2_M11,T3_M11,T4_M11,T5_M11,U1_M11,ZSPAN_M11,X0_M11,X2_M11,X1_M11
2023-05-21 05:00:00,,0835.2,5.00,0.00,29.6,27.8,00.0,38.0,31.1,21.3,0003.1,0015.68,0011.17,0010.74
2023-05-21 05:01:00,,0835.1,5.00,0.00,29.5,27.8,00.0,38.0,31.1,21.2,0003.1,0015.74,0011.21,0010.77
2023-05-21 05:02:00,,0835.2,5.00,0.00,29.5,27.8,00.0,38.0,31.1,21.2,0003.2,0014.96,0011.17,0010.74
2023-05-21 05:03:00,,0835.2,5.01,0.00,29.5,27.8,00.0,38.0,31.1,21.2,0003.3,0015.13,0011.17,0010.72
2023-05-21 05:04:00,,0835.1,5.01,0.00,29.5,27.7,00.0,38.0,31.1,21.1,0003.4,0015.18,0011.16,0010.71
2023-05-21 05:05:00,,0835.1,5.00,0.00,29.5,27.7,00.0,38.0,31.1,21.1,0003.4,0015.26,0011.18,0010.70
2023-05-21 05:06:00,,0835.0,5.00,0.00,29.5,27.7,00.0,37.9,31.1,21.2,0003.5,0015.31,0011.18,0010.68
2023-05-21 05:07:00,,0835.0,5.01,0.00,29.5,27.7,00.0,37.9,31.1,21.2,0003.4,0015.30,0011.18,0010.67
2023-05-21 05:08:00,,0834.9,5.00,0.00,29.5,27.7,00.0,37.9,31.1,21.1,0003.3,0015.29,0011.17,0010.67
2023-05-21 05:09:00,,0834.9,5.00,0.00,29.5,27.7,00.0,37.9,31.0,21.1,0003.3,0015.36,0011.19,0010.68
2023-05-21 05:10:00,,0835.0,5.00,0.00,29.5,27.7,00.0,37.9,31.1,21.1,0003.3,0015.33,0011.20,0010.70
2023-05-21 05:11:00,,0834.9,5.00,0.00,29.5,27.7,00.0,37.9,31.0,21.1,0003.4,0015.57,0011.23,0010.70
2023-05-21 05:12:00,,0834.9,5.00,0.00,29.5,27.7,00.0,37.9,31.0,21.2,0003.3,0015.54,0011.20,0010.66
2023-05-21 05:13:00,,0834.9,5.00,0.00,29.5,27.7,00.0,37.9,31.0,21.2,0003.1,0015.57,0011.20,0010.66
2023-05-21 05:14:00,,0835.0,5.00,0.00,29.5,27.7,00.0,37.9,31.0,21.2,0002.9,0015.26,0011.18,0010.65
2023-05-21 05:15:00,,0835.0,5.00,0.00,29.5,27.7,00.0,37.9,31.0,21.2,0002.7,0015.50,0011.19,0010.65
2023-05-21 05:16:00,,0834.9,5.00,0.00,29.5,27.7,00.0,37.9,31.0,21.2,0002.5,0016.18,0011.21,0010.64
2023-05-21 05:17:00,,0835.4,5.00,0.00,29.5,27.7,00.0,37.9,31.0,21.1,0002.5,0016.19,0011.20,0010.64
2023-05-21 05:18:00,,0835.3,5.00,0.00,29.4,27.7,00.0,37.9,31.0,21.1,0002.4,0016.86,0011.17,0010.62
2023-05-21 05:19:00,,0835.3,5.00,0.00,29.4,27.6,00.0,37.9,31.0,21.3,0002.6,0017.08,0011.18,0010.61
2023-05-21 05:20:00,,0835.3,5.00,0.00,29.4,27.6,00.0,37.9,31.0,21.4,0002.6,0017.17,0011.16,0010.61
2023-05-21 05:21:00,,0835.2,5.00,0.00,29.4,27.6,00.0,37.8,31.0,21.8,0002.6,0017.19,0011.12,0010.59
2023-05-21 05:22:00,,0835.2,4.99,0.00,29.4,27.6,00.0,37.8,31.0,21.5,0002.4,0017.01,0011.11,0010.60
2023-05-21 05:23:00,,0835.1,4.99,0.00,29.4,27.6,00.0,37.8,30.9,21.6,0002.6,0017.01,0011.12,0010.61
2023-05-21 05:24:00,,0835.2,4.99,0.00,29.4,27.6,00.0,37.8,30.9,22.2,0002.6,0017.04,0011.12,0010.61
2023-05-21 05:25:00,,0834.9,5.01,0.00,29.4,27.6,00.0,37.8,30.9,22.2,0002.7,0017.03,0011.12,0010.62
2023-05-21 05:26:00,,0834.9,5.01,0.00,29.4,27.6,00.0,37.8,30.9,21.7,0002.9,0016.94,0011.13,0010.65
2023-05-21 05:27:00,,0834.9,4.99,0.00,29.4,27.6,00.0,37.8,30.9,21.5,0003.1,0016.04,0011.11,0010.65
2023-05-21 05:28:00,,0834.7,4.99,0.00,29.4,27.6,00.0,37.8,30.9,21.9,0003.1,0016.02,0011.10,0010.64
2023-05-21 05:29:00,,0834.7,5.00,0.00,29.4,27.5,00.0,37.8,30.9,22.1,0003.2,0015.48,0011.12,0010.66
2023-05-21 05:30:00,,0834.7,5.01,0.00,29.4,27.5,00.0,37.8,30.9,22.1,0003.1,0015.19,0011.17,0010.69
2023-05-21 05:31:00,,0834.8,5.01,0.00,29.4,27.5,00.0,37.8,30.9,21.9,0003.1,0015.10,0011.19,0010.70
2023-05-21 05:32:00,,0834.8,5.00,0.00,29.4,27.5,00.0,37.8,30.9,22.1,0003.0,0015.02,0011.22,0010.72
2023-05-21 05:33:00,,0834.8,5.00,0.00,29.3,27.5,00.0,37.8,30.9,21.9,0003.1,0015.00,0011.22,0010.71
2023-05-21 05:34:00,,0834.8,4.99,0.00,29.3,27.5,00.0,37.8,30.9,21.7,0003.2,0015.40,0011.23,0010.72
2023-05-21 05:35:00,,0834.8,5.00,0.00,29.3,27.5,00.0,37.8,30.9,21.8,0003.2,0015.47,0011.23,0010.75
2023-05-21 05:36:00,,0834.9,5.00,0.00,29.3,27.5,00.0,37.7,30.9,22.1,0003.2,0015.42,0011.21,0010.74
2023-05-21 05:37:00,,0834.8,5.01,0.00,29.3,27.5,00.0,37.7,30.9,21.7,0003.2,0015.40,0011.23,0010.75
2023-05-21 05:38:00,,0835.2,5.00,0.00,29.3,27.5,00.0,37.7,30.9,21.6,0003.1,0015.46,0011.25,0010.78
2023-05-21 05:39:00,,0835.0,4.98,0.00,29.3,27.4,00.0,37.7,30.8,21.8,0003.0,0015.58,0011.30,0010.82
2023-05-21 05:40:00,,0835.2,4.99,0.00,29.3,27.4,00.0,37.7,30.8,21.7,0002.9,0015.63,0011.31,0010.84
2023-05-21 05:41:00,,0835.2,5.00,0.00,29.3,27.4,00.0,37.7,30.8,21.5,0003.1,0015.64,0011.31,0010.84
2023-05-21 05:42:00,,0835.4,5.01,0.00,29.3,27.4,00.0,37.7,30.8,21.3,0003.2,0015.68,0011.33,0010.84
2023-05-21 05:43:00,,0835.4,5.00,0.00,29.3,27.4,00.0,37.7,30.8,21.1,0003.2,0015.59,0011.32,0010.84
2023-05-21 05:44:00,,0835.3,5.00,0.00,29.3,27.4,00.0,37.7,30.8,21.1,0003.2,0015.68,0011.37,0010.90
2023-05-21 05:45:00,,0835.4,5.00,0.00,29.3,27.4,00.0,37.7,30.8,21.2,0003.0,0015.41,0011.44,0010.95
2023-05-21 05:46:00,,0835.3,4.98,0.00,29.3,27.4,00.0,37.7,30.8,21.1,0003.0,0015.43,0011.46,0010.95
2023-05-21 05:47:00,,0835.3,5.01,0.00,29.2,27.4,00.0,37.7,30.8,21.0,0003.3,0015.48,0011.51,0010.97
2023-05-21 05:48:00,,0835.3,5.01,0.00,29.2,27.4,00.0,37.7,30.8,21.0,0003.3,0015.51,0011.56,0011.01
2023-05-21 05:49:00,,0835.4,4.98,0.00,29.2,27.4,00.0,37.6,30.8,21.0,0003.2,0015.56,0011.62,0011.06
2023-05-21 05:50:00,,0835.4,5.00,0.00,29.2,27.4,00.0,37.6,30.8,21.0,0003.4,0015.62,0011.67,0011.09
2023-05-21 05:51:00,,0835.1,5.01,0.00,29.2,27.4,00.0,37.6,30.8,21.0,0003.4,0015.68,0011.72,0011.13
2023-05-21 05:52:00,,0834.9,5.00,0.00,29.2,27.3,00.0,37.6,30.7,21.0,0003.2,0015.81,0011.77,0011.18
2023-05-21 05:53:00,,0834.8,5.00,0.00,29.2,27.3,00.0,37.6,30.7,21.0,0003.2,0015.85,0011.82,0011.24
2023-05-21 05:54:00,,0834.7,5.00,0.00,29.2,27.4,00.0,37.6,30.7,21.0,0003.2,0016.00,0011.90,0011.30
2023-05-21 05:55:00,,0834.8,5.00,0.00,29.2,27.3,00.0,37.6,30.7,20.9,0003.3,0016.00,0011.92,0011.33
2023-05-21 05:56:00,,0834.7,5.01,0.00,29.2,27.3,00.0,37.6,30.7,20.9,0003.5,0016.02,0011.94,0011.37
2023-05-21 05:57:00,,0834.7,4.99,0.00,29.2,27.3,00.0,37.6,30.7,20.9,0003.4,0015.94,0011.97,0011.42
2023-05-21 05:58:00,,0834.8,5.01,0.00,29.2,27.3,00.0,37.6,30.7,20.9,0003.2,0015.98,0012.02,0011.47
2023-05-21 05:59:00,,0835.1,5.01,0.00,29.2,27.3,00.0,37.6,30.7,21.0,0003.0,0015.97,0012.03,0011.50
